When you browse on this site, cookies collect data to enhance your experience and personalize the content and advertising you see.
Visit our Privacy Policy to learn more. By continuing to use the site, you agree to this use of cookies and data.
  • In Hungary
  • List of Countries
  • For 7 days
  • Water Temperature
  • Satellite Maps
  • Weather Map
  • News
  • Weather Widgets
  • user-avatar
    Login

    Hourly Weather Libiąż

    Today, 19 November, Monday

    Time Temperature Precipitation Wind Pressure Humidity
    00:00 -2°C° 0.1 mm 2 mps 739 mmHg 75%
    01:00 -2°C° 0 mm 2 mps 739 mmHg 78%
    02:00 -2°C° 0.1 mm 2 mps 739 mmHg 79%
    03:00 -3°C° 0.1 mm 2 mps 738 mmHg 81%
    04:00 -3°C° 0.1 mm 2 mps 738 mmHg 82%
    05:00 -4°C° 0 mm 3 mps 738 mmHg 83%
    06:00 -4°C° 0 mm 3 mps 738 mmHg 84%
    07:00 -4°C° 0 mm 3 mps 738 mmHg 85%
    08:00 -3°C° 0 mm 4 mps 738 mmHg 79%
    09:00 -3°C° 0 mm 4 mps 738 mmHg 74%
    10:00 -2°C° 0 mm 5 mps 738 mmHg 69%
    11:00 -1°C° 0 mm 5 mps 738 mmHg 66%
    12:00 -1°C° 0 mm 5 mps 738 mmHg 63%
    13:00 0°C° 0 mm 5 mps 738 mmHg 60%
    14:00 -1°C° 0 mm 5 mps 738 mmHg 63%
    15:00 -1°C° 0 mm 4 mps 738 mmHg 66%
    16:00 -2°C° 0 mm 4 mps 739 mmHg 69%
    17:00 -2°C° 0 mm 4 mps 739 mmHg 72%
    18:00 -2°C° 0 mm 4 mps 739 mmHg 75%
    19:00 -2°C° 0 mm 5 mps 739 mmHg 77%
    20:00 -3°C° 0 mm 4 mps 739 mmHg 79%
    21:00 -3°C° 0 mm 4 mps 739 mmHg 80%
    22:00 -3°C° 0 mm 4 mps 740 mmHg 82%
    23:00 -3°C° 0 mm 4 mps 740 mmHg 83%

    Tomorrow, 20 November, Tuesday

    Time Temperature Precipitation Wind Pressure Humidity
    00:00 -3°C° 0 mm 4 mps 740 mmHg 84%
    01:00 -3°C° 0 mm 4 mps 740 mmHg 85%
    02:00 -3°C° 0 mm 4 mps 739 mmHg 85%
    03:00 -2°C° 0 mm 5 mps 739 mmHg 84%
    04:00 -2°C° 0 mm 5 mps 739 mmHg 84%
    05:00 -4°C° 0 mm 5 mps 739 mmHg 84%
    06:00 -4°C° 0 mm 5 mps 739 mmHg 85%
    07:00 -4°C° 0 mm 5 mps 739 mmHg 85%
    08:00 -3°C° 0 mm 6 mps 738 mmHg 82%
    09:00 -2°C° 0 mm 6 mps 738 mmHg 78%
    10:00 -2°C° 0 mm 6 mps 738 mmHg 75%
    11:00 -1°C° 0.1 mm 6 mps 737 mmHg 74%
    12:00 -1°C° 0.1 mm 6 mps 737 mmHg 72%
    13:00 +1°C° 0.1 mm 6 mps 736 mmHg 71%
    14:00 -1°C° 0.6 mm 6 mps 736 mmHg 74%
    15:00 -1°C° 0.6 mm 6 mps 736 mmHg 77%
    16:00 -1°C° 0.6 mm 6 mps 736 mmHg 80%
    17:00 0°C° 0.7 mm 5 mps 736 mmHg 82%
    18:00 0°C° 0.7 mm 5 mps 736 mmHg 85%
    19:00 -1°C° 0.7 mm 5 mps 736 mmHg 87%
    20:00 -1°C° 0.6 mm 5 mps 736 mmHg 88%
    21:00 -1°C° 0.6 mm 4 mps 736 mmHg 89%
    22:00 -1°C° 0.6 mm 4 mps 737 mmHg 90%
    23:00 -1°C° 0.1 mm 4 mps 737 mmHg 91%

    Day after tomorrow, 21 November, Wednesday

    Time Temperature Precipitation Wind Pressure Humidity
    00:00 -1°C° 0.1 mm 4 mps 737 mmHg 91%
    01:00 0°C° 0.1 mm 3 mps 737 mmHg 91%
    02:00 0°C° 0 mm 3 mps 737 mmHg 91%
    03:00 0°C° 0 mm 3 mps 737 mmHg 91%
    04:00 0°C° 0 mm 3 mps 737 mmHg 92%
    05:00 0°C° 0 mm 3 mps 737 mmHg 92%
    06:00 0°C° 0 mm 3 mps 738 mmHg 92%
    07:00 0°C° 0 mm 3 mps 738 mmHg 92%
    08:00 0°C° 0 mm 3 mps 738 mmHg 91%
    09:00 -1°C° 0 mm 4 mps 739 mmHg 89%
    10:00 0°C° 0 mm 4 mps 739 mmHg 88%
    11:00 0°C° 0 mm 4 mps 739 mmHg 87%
    12:00 0°C° 0 mm 4 mps 739 mmHg 86%
    13:00 0°C° 0 mm 4 mps 739 mmHg 85%
    14:00 0°C° 0 mm 4 mps 739 mmHg 85%
    15:00 0°C° 0 mm 4 mps 739 mmHg 86%
    16:00 -1°C° 0 mm 4 mps 740 mmHg 86%
    17:00 -1°C° 0 mm 4 mps 740 mmHg 86%
    18:00 -1°C° 0 mm 4 mps 740 mmHg 86%
    19:00 -1°C° 0 mm 4 mps 741 mmHg 86%
    20:00 -1°C° 0 mm 4 mps 741 mmHg 86%
    21:00 -2°C° 0 mm 4 mps 741 mmHg 87%
    22:00 -2°C° 0 mm 4 mps 741 mmHg 87%
    23:00 -2°C° 0 mm 4 mps 741 mmHg 88%

    22 November, Thursday

    Time Temperature Precipitation Wind Pressure Humidity
    00:00 -2°C° 0 mm 4 mps 741 mmHg 88%
    01:00 -3°C° 0 mm 4 mps 741 mmHg 88%
    02:00 -2°C° 0 mm 3 mps 741 mmHg 88%
    03:00 -2°C° 0 mm 3 mps 741 mmHg 88%
    04:00 -2°C° 0 mm 3 mps 741 mmHg 89%
    05:00 -2°C° 0 mm 3 mps 742 mmHg 89%
    06:00 -2°C° 0 mm 3 mps 742 mmHg 89%
    07:00 -2°C° 0 mm 3 mps 742 mmHg 89%
    08:00 -1°C° 0 mm 3 mps 742 mmHg 87%
    09:00 0°C° 0 mm 3 mps 742 mmHg 85%
    10:00 0°C° 0 mm 3 mps 742 mmHg 83%
    11:00 +1°C° 0 mm 3 mps 742 mmHg 82%
    12:00 +1°C° 0 mm 3 mps 742 mmHg 80%
    13:00 +3°C° 0 mm 2 mps 742 mmHg 79%
    14:00 +2°C° 0 mm 2 mps 742 mmHg 81%
    15:00 +1°C° 0 mm 2 mps 743 mmHg 83%
    16:00 +1°C° 0 mm 2 mps 743 mmHg 85%
    17:00 +1°C° 0 mm 2 mps 743 mmHg 86%
    18:00 -1°C° 0 mm 2 mps 743 mmHg 86%
    19:00 -1°C° 0 mm 2 mps 743 mmHg 86%
    20:00 -1°C° 0 mm 2 mps 743 mmHg 87%
    21:00 -1°C° 0 mm 2 mps 744 mmHg 87%
    22:00 -1°C° 0 mm 2 mps 744 mmHg 87%
    23:00 +1°C° 0 mm 1 mps 744 mmHg 88%

    23 November, Friday

    Time Temperature Precipitation Wind Pressure Humidity
    00:00 +1°C° 0 mm 1 mps 744 mmHg 88%
    01:00 +1°C° 0 mm 1 mps 744 mmHg 89%
    02:00 +1°C° 0 mm 1 mps 744 mmHg 89%
    03:00 +1°C° 0 mm 1 mps 744 mmHg 90%
    04:00 +1°C° 0 mm 1 mps 744 mmHg 90%
    05:00 +1°C° 0 mm 1 mps 744 mmHg 90%
    06:00 +1°C° 0 mm 1 mps 745 mmHg 91%
    07:00 +1°C° 0 mm 1 mps 745 mmHg 91%
    08:00 +2°C° 0 mm 1 mps 745 mmHg 88%
    09:00 +3°C° 0 mm 1 mps 745 mmHg 84%
    10:00 +5°C° 0 mm 1 mps 745 mmHg 81%
    11:00 +6°C° 0 mm 1 mps 745 mmHg 79%
    12:00 +7°C° 0 mm 1 mps 745 mmHg 77%
    13:00 +7°C° 0 mm 1 mps 745 mmHg 76%
    14:00 +6°C° 0 mm 1 mps 745 mmHg 80%
    15:00 +5°C° 0 mm 1 mps 745 mmHg 84%
    16:00 +4°C° 0 mm 1 mps 744 mmHg 89%
    17:00 +4°C° 0 mm 1 mps 744 mmHg 89%
    18:00 +4°C° 0 mm 1 mps 744 mmHg 90%
    19:00 +3°C° 0 mm 1 mps 744 mmHg 91%
    20:00 +3°C° 0 mm 1 mps 744 mmHg 91%
    21:00 +3°C° 0 mm 1 mps 744 mmHg 91%
    22:00 +3°C° 0 mm 1 mps 744 mmHg 91%
    23:00 +3°C° 0 mm 1 mps 744 mmHg 91%

    24 November, Saturday

    Time Temperature Precipitation Wind Pressure Humidity
    00:00 +3°C° 0 mm 1 mps 743 mmHg 91%
    01:00 +3°C° 0 mm 1 mps 743 mmHg 91%
    02:00 +3°C° 0 mm 1 mps 743 mmHg 91%
    03:00 +3°C° 0 mm 1 mps 743 mmHg 91%
    04:00 +3°C° 0 mm 1 mps 742 mmHg 91%
    05:00 +3°C° 0 mm 1 mps 742 mmHg 91%
    06:00 +3°C° 0 mm 1 mps 742 mmHg 91%
    07:00 +3°C° 0 mm 1 mps 742 mmHg 91%
    08:00 +4°C° 0 mm 1 mps 741 mmHg 87%
    09:00 +5°C° 0 mm 1 mps 741 mmHg 83%
    10:00 +6°C° 0 mm 1 mps 741 mmHg 80%
    11:00 +7°C° 0 mm 1 mps 741 mmHg 77%
    12:00 +8°C° 0 mm 1 mps 740 mmHg 75%
    13:00 +8°C° 0 mm 1 mps 740 mmHg 72%
    14:00 +7°C° 0 mm 1 mps 740 mmHg 76%
    15:00 +6°C° 0 mm 1 mps 740 mmHg 80%
    16:00 +6°C° 0 mm 1 mps 739 mmHg 85%
    17:00 +6°C° 0 mm 1 mps 739 mmHg 85%
    18:00 +6°C° 0 mm 1 mps 739 mmHg 85%
    19:00 +6°C° 0 mm 1 mps 739 mmHg 85%
    20:00 +5°C° 0 mm 1 mps 739 mmHg 86%
    21:00 +4°C° 0 mm 2 mps 739 mmHg 87%
    22:00 +4°C° 0 mm 2 mps 739 mmHg 89%
    23:00 +4°C° 0 mm 2 mps 739 mmHg 90%
    Show more